Regional Weather Roundup
Issued by NWS Midland/Odessa, TX

Skip options and go directly to product.
Home | Oldest Version | Previous Version | Current Version | All | Text Only | Save Text | Print | Product List | Glossary On

Skip product version selection by date and time.   
235
ASUS44 KMAF 180310
RWRMAF
MIDLAND AREA WEATHER ROUNDUP
NATIONAL WEATHER SERVICE MIDLAND TX
1000 PM CDT WED SEP 17 2014

...IN SOUTHWEST TEXAS AND SOUTHEAST NEW MEXICO...

CITY           SKY/WX    TMP DP  RH WIND       PRES   REMARKS
ALPINE         PTCLDY    73  61  66 S9        30.09S
ANDREWS        CLOUDY    69  68  96 NE10G21   30.02R
ARTESIA        NOT AVBL
BIG SPRING     CLOUDY    74  68  81 NE12      30.01R
CARLSBAD       MOCLDY    74  74 100 N8        29.98R
DRYDEN           N/A     84  68  58 SE7       29.91R
FORT STOCKTON  PTCLDY    78  65  63 SE9       29.96R
GUAD PASS      CLOUDY    69  59  70 NE26      30.09S
HOBBS          MOCLDY    68  66  94 E7        30.03R
MARFA          MOCLDY    72  61  68 NE5       30.08R
MIDLAND AIRPK  NOT AVBL
MIDLAND INTL   CLOUDY    79  66  64 E14       29.96R
ODESSA         MOCLDY    79  65  62 SE14      29.97R
PECOS          MOCLDY    81  65  58 SE6       29.93R
PRESIDIO       FAIR      84  60  44 NE8       29.89R
SEMINOLE       CLOUDY    67  66  96 E13       30.03S
SNYDER         TSTM      70  69  96 SW3       30.03R
WINK           PTCLDY    82  64  54 E6        29.93R
$$
...OTHER STATIONS IN TEXAS...

CITY           SKY/WX    TMP DP  RH WIND       PRES   REMARKS
ABILENE        LGT RAIN  74  70  87 E8        29.97R
AMARILLO       CLOUDY    69  64  84 S8        30.03R
AUSTIN         CLOUDY    79  74  84 SE14      29.90R
BROWNSVILLE    PTCLDY    80  77  90 SE7       29.89R
CORPUS CHRISTI MOCLDY    81  77  88 SE10      29.88R
DALLAS FTW     CLOUDY    80  72  76 E3        29.88S
DEL RIO        CLEAR     84  71  65 E6        29.86R
EL PASO        TSTM      67  66  97 NW13      30.01R VSB 1/4
HOUSTON INT    PTCLDY    76  75  97 CALM      29.92R
LUBBOCK        LGT RAIN  68  66  93 SE15      30.02R
SAN ANGELO     CLOUDY    78  67  68 E10       29.96R
SAN ANTONIO    CLOUDY    84  73  69 SE5       29.89R
WACO           LGT RAIN  74  72  93 S8        29.94R
WICHITA FALLS  NOT AVBL
$$
...OTHER LOCATIONS IN NEW MEXICO...

CITY           SKY/WX    TMP DP  RH WIND       PRES   REMARKS
ALAMAGORDO     CLOUDY    72  64  78 NW5       30.03R
ALBUQUERQUE    CLOUDY    67  58  72 CALM      30.12R
CANNON AFB     MOCLDY    66  66 100 SE6       30.05R
CLOVIS           N/A     64  63  94 S7        30.07R
HOLLOMAN AFB   DRIZZLE   71  65  81 NW5       30.01R
ROSWELL        MOCLDY    69  65  86 W6        30.01R
RUIDOSO        CLOUDY    59  59 100 SW5       30.22R
SANTA FE       CLOUDY    62  49  62 N6        30.16R
TRUTH OR CONSE LGT RAIN  69  61  75 NE6       30.07R
TUCUMCARI      CLOUDY    70  59  68 CALM      30.02R
$$

USA.gov is the U.S. government's official web portal to all federal, state and local government web resources and services.